Regional Weather Roundup
Issued by NWS Jackson, KY

Home | Current Version | Previous Version | Graphics & Text | Print | Product List | Glossary On
Versions: 1 2 3 4 5 6 7 8 9 10 11 12 13 14 15 16 17 18 19 20 21 22 23 24 25 26 27 28
000
ASUS43 KJKL 221710
RWRJKL

EAST KENTUCKY HOURLY WEATHER ROUNDUP
NATIONAL WEATHER SERVICE JACKSON KY
100 PM EDT THU JUN 22 2017

NOTE: "FAIR" INDICATES FEW OR NO CLOUDS BELOW 12,000 FEET WITH
NO SIGNIFICANT WEATHER AND/OR OBSTRUCTIONS TO VISIBILITY.

* THESE REPORTS ARE NOT UNDER NWS QUALITY CONTROL AND MAY NOT
  REPORT WEATHER SUCH AS PRECIPITATION AND FOG.

KYZ079-080-083-085-087-088-110-112-115-119-120-221800
...EASTERN KENTUCKY...

CITY           SKY/WX    TMP DP  RH WIND       PRES   REMARKS
JACKSON        CLOUDY    74  68  81 VRB3      30.13R
LONDON         RAIN      70  68  93 VRB5      30.12F FOG
SOMERSET*      RAIN      70  70 100 SE3       30.10F
MONTICELLO*    LGT RAIN  73  70  90 E9        30.09F
WILLIAMSBURG*  CLOUDY    70  70 100 SE6       30.11F
MIDDLESBORO*   RAIN      72  70  94 CALM      30.14F
HARLAN APT*    CLOUDY    68  66  94 CALM      30.16F
PIKE CO APT*   CLOUDY    77  70  80 CALM      30.13S
BIG SANDY APT* CLOUDY    80  70  71 SW7       30.11S
MOREHEAD APT*  CLOUDY    79  68  69 S8G15     30.10S HAZE
$$

KYZ035-036-041-042-044-050-067-078-099-221800
...CENTRAL KENTUCKY...

CITY           SKY/WX    TMP DP  RH WIND       PRES   REMARKS
MT STERLING*   CLOUDY    77  68  73 SW9G17    30.10S
FLEMING/MASON* CLOUDY    81  69  68 SW12G17   30.07F
DANVILLE*      LGT RAIN  72  70  94 S7        30.10S
LEXINGTON      LGT RAIN  76  66  71 S13       30.08S
FRANKFORT      CLOUDY    78  67  68 SW17G23   30.05S
LOUISVILLE     CLOUDY    80  69  69 S18G28    30.02S
LEBANON*         N/A     72  70  94 S9        30.07F FOG
GLASGOW*       RAIN      71  71 100 S3        30.03F
BOWLING GREEN  RAIN      73  71  93 SE12      30.01F FOG
$$

KYZ091>093-OHZ055-061-077-WVZ005-015-034-035-042-221800
...SOUTHERN OHIO/WEST VIRGINIA...

CITY           SKY/WX    TMP DP  RH WIND       PRES   REMARKS
COVINGTON      CLOUDY    81  71  71 S13       30.02F
COLUMBUS       CLOUDY    84  69  60 SW12G20   30.00S
DAYTON         CLOUDY    81  69  67 S16       30.00F
WILMINGTON     CLOUDY    79  71  76 SW12      30.02F
HUNTINGTON     PTSUNNY   80  69  69 S5        30.06F
CHARLESTON     PTSUNNY   81  69  67 W6        30.08S
PINEVILLE*     CLOUDY    81  68  65 MISG      30.19F
BECKLEY        PTSUNNY   78  64  61 VRB3      30.16F
BLUEFIELD      CLOUDY    75  61  61 VRB3      30.20F
LOGAN CO APT*    N/A     79  68  69 CALM      30.12F
$$

VAZ002-007-008-TNZ017-027-036-066-071-221800
...SOUTHWEST VIRGINIA/EAST TENNESSEE...

CITY           SKY/WX    TMP DP  RH WIND       PRES   REMARKS
WISE*          LGT RAIN  70  70 100 SW10      30.22S
JONESVILLE*    LGT RAIN  68  68 100 E3        30.18F
ABINGDON*      LGT RAIN  72  69  89 W9        30.20R
BRISTOL        LGT RAIN  70  68  93 CALM      30.18S FOG
MORRISTOWN*    SUNNY     73  70  88 E5        30.13F
SEVIERVILLE*   SUNNY     73  68  83 E3        30.11F
KNOXVILLE      CLOUDY    76  70  82 NE8       30.09F
LAFOLLETTE*    PTSUNNY   73  70  88 CALM      30.15F
OAK RIDGE      CLOUDY    76  69  79 VRB3      30.11F
CROSSVILLE     LGT RAIN  70  68  93 S7        30.11F FOG
NASHVILLE      LGT RAIN  75  72  90 SE14      29.97F
$$

...KEY TO REMARKS...
VSB - VISIBILITY IN MILES
WCI - WIND CHILL INDEX
HX  - HEAT INDEX

$$




USA.gov is the U.S. government's official web portal to all federal, state and local government web resources and services.